801 visiteurs
Prévisions de votre ville :
Vigilance : 2 départements Mise à jour le 18/10/2018 à 16:00 - Voir la carte

Paris Roissy CDG (95380) le 18/10/2018 à 18:00 Choisir station

16.8°C 66 % NNE Rafales 54 km/h
Vit. moyenne 26 kmh/h

Relevés météo quotidiens pour la station de :

UTC
S: Synop
M: Metar
Loc T°C
(°C)
Td
(°C)
HR
(%)
Vis
(km)
Néb
(octa)
Vent
(km/h)
Pression
(mb)
Précipitations
(mm)
Temps
              MOY
10 min
DIR RAF 1h MESURE VAR SUR 3h    
S 00 h 02h 14.4 13.6 95 55 8/8 9 19 1008.0 +1.0/3h 8.0/6h - 8.0/3h
S 01 h 03h 14.5 13.9 96 55 8/8 7 11 1007.7 -0.3/3h 0.0/1h
S 02 h 04h 14.1 13.0 93 55 /8 4 9 1007.2 -1.0/3h 0.0/1h
S 03 h 05h 13.2 12.4 95 50 /8 4 6 1007.2 -0.9/3h 0.0/3h
S 04 h 06h 13.9 12.9 94 60 /8 13 19 1007.0 -0.7/3h 0.0/1h
S 05 h 07h 13.7 12.8 94 55 /8 6 9 1007.3 +0.1/3h 0.0/1h
S 06 h 08h 13.5 12.7 95 55 /8 9 15 1007.3 +0.1/3h 8.0/12h - 0.2/3h - 8.7/24h
S 07 h 09h 14.6 13.5 93 50 /8 6 9 1007.7 +0.7/3h 0.0/1h
S 08 h 10h 16.6 14.4 87 60 /8 7 13 1008.0 +0.8/3h 0.0/1h
S 09 h 11h 19.5 16.0 80 55 /8 7 11 1008.0 +1.0/3h 0.0/3h
S 10 h 12h 21.3 15.8 71 17 /8 11 19 1007.6 +0.2/3h 0.0/1h
S 11 h 13h 21.9 14.8 64 60 7/8 20 37 1007.7 -0.1/3h 0.0/1h
S 12 h 14h 22.7 14.0 58 60 /8 20 37 1007.4 -0.4/3h 0.0/6h - 0.0/3h
S 13 h 15h 22.6 14.2 59 45 /8 11 19 1007.3 -0.2/3h 0.0/1h
S 14 h 16h 22.9 13.9 57 60 7/8 13 26 1007.8 +0.2/3h 0.0/1h
S 15 h 17h 22.4 14.0 59 50 8/8 11 20 1008.5 +1.0/3h 0.0/3h
S 16 h 18h 22.1 14.5 62 60 /8 19 39 1008.5 +1.1/3h 0.0/1h
S 17 h 19h 21.6 14.5 64 55 6/8 17 35 1008.8 +0.9/3h 0.0/1h
S 18 h 20h 16.3 14.7 90 19 8/8 15 59 1011.0 +2.2/3h 2.0/12h - 2.0/3h
S 19 h 21h 15.8 13.8 88 60 8/8 9 28 1012.3 +3.5/3h 0.0/1h
S 20 h 22h 15.6 14.8 95 29 7/8 4 7 1012.7 +3.6/3h 0.0/1h
S 21 h 23h 16.1 15.3 95 21 8/8 4 7 1013.7 +2.7/3h 0.0/1h
S 22 h 00h 15.9 15.3 96 14 /8 4 6 1013.9 +1.6/3h 0.0/1h
S 23 h 01h 15.0 14.5 97 0.6 6/8 6 9 1014.4 +1.6/3h 0.0/1h
evolution des temperatures
cumul des precipitations
vent moyen et rafales
pression atmospherique

Un tiret (-) signifie que les données ne sont pas disponibles.

Passez la souris sur les pictos temps pour avoir plus de précisions. Passez les flèches sur l'icône de la direction du vent pour voir la direction précise en degrés.

Les données de l'heure en cours sont disponibles à partir de H+15 minutes.


S signifie station Synop, plus complète qu'une station Metar (M). Il y a +1h de différence entre l'heure UTC et l'heure légale en hiver et +2h en été.

Td est la mesure du point de rosée.

HR est l'humidité relative/p>

Vis est la visibilité

Néb est la nébulosité du ciel (couverture nuageuse) exprimée en octas (de 0/8 à 8/8).

Vent moy 10 min donne le vent moyen sur les 10 minutes qui précèdent le relevé.

Vent raf 1h donne la rafale maximale mesurée dans l'heure qui précède le relevé.


Les données les plus anciennes remontent à avril 2014.

Les données présentées sur cette page proviennent des stations météo officielles. Les relevés sont effectués aux normes en vigueur (anémomètre à 10m de haut, thermomètre sous abri normalisé à 2m du sol...)

Météo 60 décline toute responsabilité en cas d'absence de données, d'erreurs, de mauvaise utilisation ou interprétation et n'est pas habilité à fournir des certificats intempéries.